INTELSAT 33E DEB, 64395

Orbit data source: Space-Track

INTELSAT 33E DEB, 64395 is space debris in GEO originally from a launch on Wed, 24 Aug 2016 UTC launched from the French Guiana (FRGUI). Debris objects in space refer to the collection of defunct objects orbiting the Earth. Examples of debris include non-operational satellites, rocket bodies, and fragments generated from explosions, collisions, or faulty payload assembly.

Not visible in the next 10 days
Identifier
64395, 2016-053Z
Orbit
GEO
Country
Flag of UnknownUnknown / ITSO
Related business
Manufacturer
Boeing/ES
Mission
Spacecraft
Bus & Motor
Unknown
Mass
Unknown
Launch date (UTC)
2016-08-24 (9 years ago)
Launch vehicle
Unknown
Launch site
French Guiana (FRGUI)
Object type
Payload
Rocket body
Debris
Shape & HBR
Unknown shape, 1.1 m
Radar Cross Section
RCS unknown

Expand to show TLE details & history
Last TLE update: 4 days ago

TLE from 4 days ago
0 INTELSAT 33E DEB
1 64395U 16053Z   25310.75220730 -.00000124  00000-0  00000-0 0  9997
2 64395   1.8712 123.0201 0088379 128.5062 232.7030  0.99835699  3701
Epoch: 2025-11-06T18:03Z
TLE epoch observation values (Epoch: 2025-11-06T18:03:10.710Z)
Latitude
-0.00002°
Longitude
166.38867°
Altitude
36,137.13 km
Speed
3.054 km/s
True Right ascension
08h 13m 33s
True Declination
0° 00' 00"
Sunlit
Object was in daylight at epoch
Visualization orbit readout
Latitude
Unknown
Longitude
Unknown
Altitude
Unknown
Speed
Unknown
Apparent Right ascension
Unknown
Apparent Declination
Unknown
Sunlit
N/A
Visualization observer readout
Local Sidereal Time
04:15:50
Azimuth
Unknown
Elevation
Unknown
Doppler factor
Unknown
Orbital elements
Apogee altitude
36,284.098 km
Perigee altitude
35,536.615 km
Semi-major axis
42,288.493 km
Eccentricity
0.00884
Inclination
1.8712°
RAAN
123.0201°
Arg. of periapsis
128.5062°
True anomaly
231.90274°
Mean anomaly
232.703°
Eccentric anomaly
232.30233°
Mean motion
0.24958 °/min
Orbital period
1,442.42 mins
BSTAR
0
Loading maneuver chart data...
Computing Atmospheric mass density...
Loading historical data...
Loading historical data...
Loading historical data...
Loading historical data...
Loading historical data...
Loading historical data...
Loading historical data...

Documentation

Showing up to 5 results
|